Time,TemperatureF,DewpointF,PressureIn,WindDirection,WindDirectionDegrees,WindSpeedMPH,WindSpeedGustMPH,Humidity,HourlyPrecipIn,Conditions,Clouds,dailyrainin,SolarRadiationWatts/m^2,SoftwareType,DateUTC
2013-04-26 00:00:00,51.3,47.9,30.29,South,176,0.0,0.0,88,0.00,,,0.00,0,Wunderground v.1.15,2013-04-26 04:00:00,
2013-04-26 00:02:00,51.3,47.9,30.29,South,176,0.0,0.0,88,0.00,,,0.00,0,Wunderground v.1.15,2013-04-26 04:02:00,
2013-04-26 00:04:00,51.3,47.9,30.29,South,176,0.0,0.0,88,0.00,,,0.00,0,Wunderground v.1.15,2013-04-26 04:04:00,
2013-04-26 00:10:00,51.1,48.0,30.29,South,176,0.0,0.0,89,0.00,,,0.00,0,Wunderground v.1.15,2013-04-26 04:10:00,
2013-04-26 00:16:00,51.0,47.9,30.29,South,176,0.0,0.0,89,0.00,,,0.00,0,Wunderground v.1.15,2013-04-26 04:16:00,
2013-04-26 00:22:00,51.0,47.9,30.29,South,176,0.0,0.0,89,0.00,,,0.00,0,Wunderground v.1.15,2013-04-26 04:22:00,
2013-04-26 00:28:00,50.8,48.0,30.29,South,176,0.0,0.0,90,0.00,,,0.00,0,Wunderground v.1.15,2013-04-26 04:28:00,
2013-04-26 00:34:00,50.8,48.0,30.30,South,176,0.0,0.0,90,0.00,,,0.00,0,Wunderground v.1.15,2013-04-26 04:34:00,
2013-04-26 00:36:00,50.7,47.9,30.30,South,176,0.0,0.0,90,0.00,,,0.00,0,Wunderground v.1.15,2013-04-26 04:36:00,
2013-04-26 00:42:00,50.5,47.7,30.30,South,176,0.0,0.0,90,0.00,,,0.00,0,Wunderground v.1.15,2013-04-26 04:42:00,
2013-04-26 00:48:00,50.4,47.9,30.30,South,176,0.0,0.0,91,0.00,,,0.00,0,Wunderground v.1.15,2013-04-26 04:48:00,
2013-04-26 00:54:00,50.1,47.6,30.30,South,176,0.0,0.0,91,0.00,,,0.00,0,Wunderground v.1.15,2013-04-26 04:54:00,
2013-04-26 01:00:00,50.1,47.6,30.30,South,176,0.0,0.0,91,0.00,,,0.00,0,Wunderground v.1.15,2013-04-26 05:00:00,
2013-04-26 01:06:00,49.9,47.4,30.30,South,176,0.0,0.0,91,0.00,,,0.00,0,Wunderground v.1.15,2013-04-26 05:06:00,
2013-04-26 01:12:00,49.8,47.3,30.30,South,176,0.0,0.0,91,0.00,,,0.00,0,Wunderground v.1.15,2013-04-26 05:12:00,
2013-04-26 01:18:00,49.6,47.1,30.30,South,176,0.0,0.0,91,0.00,,,0.00,0,Wunderground v.1.15,2013-04-26 05:18:00,
2013-04-26 01:24:00,49.4,46.9,30.30,South,176,0.0,0.0,91,0.00,,,0.00,0,Wunderground v.1.15,2013-04-26 05:24:00,
2013-04-26 01:30:00,49.1,46.6,30.30,South,176,0.0,0.0,91,0.00,,,0.00,0,Wunderground v.1.15,2013-04-26 05:30:00,
2013-04-26 01:36:00,48.9,46.7,30.30,South,176,0.0,0.0,92,0.00,,,0.00,0,Wunderground v.1.15,2013-04-26 05:36:00,
2013-04-26 01:42:00,48.8,46.6,30.30,South,176,0.0,0.0,92,0.00,,,0.00,0,Wunderground v.1.15,2013-04-26 05:42:00,
2013-04-26 01:48:00,48.9,47.0,30.30,South,176,0.0,0.0,93,0.00,,,0.00,0,Wunderground v.1.15,2013-04-26 05:48:00,
2013-04-26 01:54:00,48.8,46.6,30.30,South,176,0.0,0.0,92,0.00,,,0.00,0,Wunderground v.1.15,2013-04-26 05:54:00,
2013-04-26 02:00:00,48.6,46.7,30.31,South,176,0.0,0.0,93,0.00,,,0.00,0,Wunderground v.1.15,2013-04-26 06:00:00,
2013-04-26 02:06:00,48.6,46.7,30.31,South,176,0.0,0.0,93,0.00,,,0.00,0,Wunderground v.1.15,2013-04-26 06:06:00,
2013-04-26 02:12:00,48.6,46.7,30.31,South,176,0.0,0.0,93,0.00,,,0.00,0,Wunderground v.1.15,2013-04-26 06:12:00,
2013-04-26 02:18:00,48.5,46.6,30.31,South,176,0.0,0.0,93,0.00,,,0.00,0,Wunderground v.1.15,2013-04-26 06:18:00,
2013-04-26 02:24:00,48.5,46.9,30.31,South,176,0.0,0.0,94,0.00,,,0.00,0,Wunderground v.1.15,2013-04-26 06:24:00,
2013-04-26 02:30:00,48.3,46.7,30.31,South,176,0.0,0.0,94,0.00,,,0.00,0,Wunderground v.1.15,2013-04-26 06:30:00,
2013-04-26 02:36:00,48.2,46.6,30.31,South,176,0.0,0.0,94,0.00,,,0.00,0,Wunderground v.1.15,2013-04-26 06:36:00,
2013-04-26 02:42:00,48.2,46.6,30.31,South,176,0.0,0.0,94,0.00,,,0.00,0,Wunderground v.1.15,2013-04-26 06:42:00,
2013-04-26 02:48:00,48.2,46.6,30.30,South,176,0.0,0.0,94,0.00,,,0.00,0,Wunderground v.1.15,2013-04-26 06:48:00,
2013-04-26 02:54:00,48.2,46.6,30.30,South,176,0.0,0.0,94,0.00,,,0.00,0,Wunderground v.1.15,2013-04-26 06:54:00,
2013-04-26 03:00:00,48.0,46.4,30.30,South,176,0.0,0.0,94,0.00,,,0.00,0,Wunderground v.1.15,2013-04-26 07:00:00,
2013-04-26 03:06:00,47.9,46.3,30.30,South,176,0.0,0.0,94,0.00,,,0.00,0,Wunderground v.1.15,2013-04-26 07:06:00,
2013-04-26 03:12:00,47.6,46.0,30.30,South,176,0.0,0.0,94,0.00,,,0.00,0,Wunderground v.1.15,2013-04-26 07:12:00,
2013-04-26 03:18:00,47.4,45.8,30.30,South,176,0.0,0.0,94,0.00,,,0.00,0,Wunderground v.1.15,2013-04-26 07:18:00,
2013-04-26 03:24:00,47.3,45.7,30.30,South,176,0.0,0.0,94,0.00,,,0.00,0,Wunderground v.1.15,2013-04-26 07:24:00,
2013-04-26 03:30:00,47.1,45.5,30.30,South,176,0.0,0.0,94,0.00,,,0.00,0,Wunderground v.1.15,2013-04-26 07:30:00,
2013-04-26 03:36:00,47.1,45.7,30.30,South,176,0.0,0.0,95,0.00,,,0.00,0,Wunderground v.1.15,2013-04-26 07:36:00,
2013-04-26 03:42:00,47.1,45.7,30.30,South,176,0.0,0.0,95,0.00,,,0.00,0,Wunderground v.1.15,2013-04-26 07:42:00,
2013-04-26 03:48:00,47.1,45.7,30.31,South,176,0.0,0.0,95,0.00,,,0.00,0,Wunderground v.1.15,2013-04-26 07:48:00,
2013-04-26 03:54:00,47.0,45.6,30.31,South,176,0.0,0.0,95,0.00,,,0.00,0,Wunderground v.1.15,2013-04-26 07:54:00,
2013-04-26 04:01:00,47.1,46.0,30.32,North,349,1.0,1.0,96,0.00,,,0.00,0,Wunderground v.1.15,2013-04-26 08:01:00,
2013-04-26 04:06:00,47.3,46.2,30.32,North,349,1.0,1.0,96,0.00,,,0.00,0,Wunderground v.1.15,2013-04-26 08:06:00,
2013-04-26 04:12:00,47.6,46.5,30.32,North,349,0.0,0.0,96,0.00,,,0.00,0,Wunderground v.1.15,2013-04-26 08:12:00,
2013-04-26 04:18:00,47.9,46.8,30.32,North,349,0.0,0.0,96,0.00,,,0.00,0,Wunderground v.1.15,2013-04-26 08:18:00,
2013-04-26 04:24:00,48.5,47.7,30.32,North,349,0.0,0.0,97,0.00,,,0.00,0,Wunderground v.1.15,2013-04-26 08:24:00,
2013-04-26 04:30:00,49.1,48.3,30.33,North,349,0.0,2.0,97,0.00,,,0.00,0,Wunderground v.1.15,2013-04-26 08:30:00,
2013-04-26 04:36:00,49.8,49.0,30.33,North,349,1.0,1.0,97,0.00,,,0.00,0,Wunderground v.1.15,2013-04-26 08:36:00,
2013-04-26 04:42:00,50.2,49.4,30.33,North,349,1.0,1.0,97,0.00,,,0.00,0,Wunderground v.1.15,2013-04-26 08:42:00,
2013-04-26 04:48:00,50.5,49.7,30.33,North,349,1.0,1.0,97,0.00,,,0.00,0,Wunderground v.1.15,2013-04-26 08:48:00,
2013-04-26 04:54:00,50.7,49.9,30.33,North,349,0.0,0.0,97,0.00,,,0.00,0,Wunderground v.1.15,2013-04-26 08:54:00,
2013-04-26 05:00:00,51.0,50.2,30.33,North,349,0.0,0.0,97,0.00,,,0.00,0,Wunderground v.1.15,2013-04-26 09:00:00,
2013-04-26 05:06:00,51.1,50.3,30.33,North,349,0.0,2.0,97,0.00,,,0.00,0,Wunderground v.1.15,2013-04-26 09:06:00,
2013-04-26 05:12:00,51.1,50.3,30.33,North,349,1.0,1.0,97,0.00,,,0.00,0,Wunderground v.1.15,2013-04-26 09:12:00,
2013-04-26 05:18:00,51.1,50.3,30.33,North,349,1.0,2.0,97,0.00,,,0.00,0,Wunderground v.1.15,2013-04-26 09:18:00,
2013-04-26 05:24:00,50.8,50.0,30.33,North,349,1.0,2.0,97,0.00,,,0.00,0,Wunderground v.1.15,2013-04-26 09:24:00,
2013-04-26 05:31:00,50.8,50.0,30.33,North,349,0.0,0.0,97,0.00,,,0.00,0,Wunderground v.1.15,2013-04-26 09:31:00,
2013-04-26 05:36:00,50.7,49.9,30.33,North,349,0.0,0.0,97,0.00,,,0.00,0,Wunderground v.1.15,2013-04-26 09:36:00,
2013-04-26 05:42:00,50.7,49.9,30.33,North,349,0.0,0.0,97,0.00,,,0.00,0,Wunderground v.1.15,2013-04-26 09:42:00,
2013-04-26 05:48:00,50.7,49.9,30.34,North,349,0.0,0.0,97,0.00,,,0.00,0,Wunderground v.1.15,2013-04-26 09:48:00,
2013-04-26 05:54:00,50.7,49.9,30.34,North,349,0.0,0.0,97,0.00,,,0.00,0,Wunderground v.1.15,2013-04-26 09:54:00,
2013-04-26 06:00:00,50.7,49.9,30.34,North,349,0.0,0.0,97,0.00,,,0.00,0,Wunderground v.1.15,2013-04-26 10:00:00,
2013-04-26 06:06:00,50.7,49.9,30.34,North,349,0.0,0.0,97,0.00,,,0.00,0,Wunderground v.1.15,2013-04-26 10:06:00,
2013-04-26 06:12:00,50.8,50.0,30.34,North,349,0.0,0.0,97,0.00,,,0.00,0,Wunderground v.1.15,2013-04-26 10:12:00,
2013-04-26 06:18:00,50.8,50.0,30.35,North,349,0.0,0.0,97,0.00,,,0.00,0,Wunderground v.1.15,2013-04-26 10:18:00,
2013-04-26 06:24:00,50.8,50.0,30.35,North,349,0.0,0.0,97,0.00,,,0.00,0,Wunderground v.1.15,2013-04-26 10:24:00,
2013-04-26 06:30:00,50.7,49.9,30.36,North,349,0.0,0.0,97,0.00,,,0.00,5,Wunderground v.1.15,2013-04-26 10:30:00,
2013-04-26 06:36:00,50.4,49.6,30.36,East,80,1.0,2.0,97,0.00,,,0.00,7,Wunderground v.1.15,2013-04-26 10:36:00,
2013-04-26 06:42:00,50.2,49.4,30.36,NW,313,1.0,1.0,97,0.00,,,0.00,14,Wunderground v.1.15,2013-04-26 10:42:00,
2013-04-26 06:48:00,50.1,49.3,30.36,NW,313,1.0,1.0,97,0.00,,,0.00,16,Wunderground v.1.15,2013-04-26 10:48:00,
2013-04-26 06:54:00,49.9,49.1,30.36,NW,313,0.0,1.0,97,0.00,,,0.00,21,Wunderground v.1.15,2013-04-26 10:54:00,
2013-04-26 07:00:00,49.8,49.0,30.37,NW,313,0.0,0.0,97,0.00,,,0.00,25,Wunderground v.1.15,2013-04-26 11:00:00,
2013-04-26 07:06:00,49.5,48.7,30.37,NW,313,0.0,0.0,97,0.00,,,0.00,32,Wunderground v.1.15,2013-04-26 11:06:00,
2013-04-26 07:12:00,49.5,48.7,30.37,NW,313,0.0,0.0,97,0.00,,,0.00,33,Wunderground v.1.15,2013-04-26 11:12:00,
2013-04-26 07:18:00,49.5,48.7,30.38,NW,313,0.0,0.0,97,0.00,,,0.00,37,Wunderground v.1.15,2013-04-26 11:18:00,
2013-04-26 07:24:00,49.5,48.7,30.38,NW,313,0.0,0.0,97,0.00,,,0.00,42,Wunderground v.1.15,2013-04-26 11:24:00,
2013-04-26 07:30:00,49.8,49.0,30.39,NW,313,0.0,0.0,97,0.00,,,0.00,46,Wunderground v.1.15,2013-04-26 11:30:00,
2013-04-26 07:36:00,50.1,49.3,30.39,NW,313,0.0,0.0,97,0.00,,,0.00,49,Wunderground v.1.15,2013-04-26 11:36:00,
2013-04-26 07:42:00,50.4,49.9,30.39,NW,313,0.0,0.0,98,0.00,,,0.00,56,Wunderground v.1.15,2013-04-26 11:42:00,
2013-04-26 07:48:00,50.5,50.0,30.39,NW,313,0.0,0.0,98,0.00,,,0.00,81,Wunderground v.1.15,2013-04-26 11:48:00,
2013-04-26 07:54:00,50.8,50.3,30.39,NW,313,0.0,0.0,98,0.00,,,0.00,95,Wunderground v.1.15,2013-04-26 11:54:00,
2013-04-26 08:00:00,51.1,50.6,30.40,NW,313,0.0,0.0,98,0.00,,,0.00,137,Wunderground v.1.15,2013-04-26 12:00:00,
2013-04-26 08:06:00,51.4,50.9,30.40,NW,322,0.0,2.0,98,0.00,,,0.00,84,Wunderground v.1.15,2013-04-26 12:06:00,
2013-04-26 08:12:00,51.9,51.4,30.40,North,0,0.0,2.0,98,0.00,,,0.00,267,Wunderground v.1.15,2013-04-26 12:12:00,
2013-04-26 08:18:00,52.5,52.0,30.41,North,1,1.0,2.0,98,0.00,,,0.00,290,Wunderground v.1.15,2013-04-26 12:18:00,
2013-04-26 08:24:00,53.3,52.8,30.41,North,1,1.0,2.0,98,0.00,,,0.00,310,Wunderground v.1.15,2013-04-26 12:24:00,
2013-04-26 08:30:00,54.4,53.6,30.41,North,7,1.0,1.0,97,0.00,,,0.00,333,Wunderground v.1.15,2013-04-26 12:30:00,
2013-04-26 08:36:00,55.3,53.6,30.41,ESE,114,1.0,2.0,94,0.00,,,0.00,355,Wunderground v.1.15,2013-04-26 12:36:00,
2013-04-26 08:42:00,56.0,53.4,30.41,ESE,114,2.0,2.0,91,0.00,,,0.00,389,Wunderground v.1.15,2013-04-26 12:42:00,
2013-04-26 08:48:00,56.7,53.2,30.41,NE,42,2.0,2.0,88,0.00,,,0.00,405,Wunderground v.1.15,2013-04-26 12:48:00,
2013-04-26 08:54:00,57.5,52.7,30.41,North,8,1.0,5.0,84,0.00,,,0.00,436,Wunderground v.1.15,2013-04-26 12:54:00,
2013-04-26 09:00:00,58.6,53.1,30.42,ENE,78,2.0,2.0,82,0.00,,,0.00,465,Wunderground v.1.15,2013-04-26 13:00:00,
2013-04-26 09:06:00,59.0,51.8,30.42,NE,35,2.0,6.0,77,0.00,,,0.00,482,Wunderground v.1.15,2013-04-26 13:06:00,
2013-04-26 09:12:00,59.8,51.9,30.42,NE,56,2.0,4.0,75,0.00,,,0.00,509,Wunderground v.1.15,2013-04-26 13:12:00,
2013-04-26 09:18:00,60.4,49.8,30.42,NE,47,3.0,5.0,68,0.00,,,0.00,528,Wunderground v.1.15,2013-04-26 13:18:00,
2013-04-26 09:24:00,61.2,50.9,30.42,East,80,5.0,5.0,69,0.00,,,0.00,551,Wunderground v.1.15,2013-04-26 13:24:00,
2013-04-26 09:30:00,61.8,49.9,30.42,ENE,65,4.0,5.0,65,0.00,,,0.00,568,Wunderground v.1.15,2013-04-26 13:30:00,
2013-04-26 09:36:00,62.3,46.9,30.42,East,89,5.0,7.0,57,0.00,,,0.00,593,Wunderground v.1.15,2013-04-26 13:36:00,
2013-04-26 09:42:00,62.1,46.7,30.42,NE,44,9.0,9.0,57,0.00,,,0.00,605,Wunderground v.1.15,2013-04-26 13:42:00,
2013-04-26 09:48:00,62.3,40.7,30.42,ENE,69,11.0,14.0,45,0.00,,,0.00,630,Wunderground v.1.15,2013-04-26 13:48:00,
2013-04-26 09:54:00,62.7,39.9,30.42,NNE,32,10.0,16.0,43,0.00,,,0.00,648,Wunderground v.1.15,2013-04-26 13:54:00,
2013-04-26 10:00:00,63.7,43.6,30.42,ENE,59,9.0,9.0,48,0.00,,,0.00,667,Wunderground v.1.15,2013-04-26 14:00:00,
2013-04-26 10:06:00,64.2,41.2,30.42,NE,52,8.0,9.0,43,0.00,,,0.00,688,Wunderground v.1.15,2013-04-26 14:06:00,
2013-04-26 10:12:00,64.5,39.0,30.42,NNE,27,8.0,11.0,39,0.00,,,0.00,699,Wunderground v.1.15,2013-04-26 14:12:00,
2013-04-26 10:18:00,64.8,39.9,30.43,NE,44,7.0,11.0,40,0.00,,,0.00,725,Wunderground v.1.15,2013-04-26 14:18:00,
2013-04-26 10:24:00,65.0,40.1,30.43,NNE,20,8.0,11.0,40,0.00,,,0.00,739,Wunderground v.1.15,2013-04-26 14:24:00,
2013-04-26 10:30:00,65.6,40.0,30.43,ENE,64,8.0,8.0,39,0.00,,,0.00,755,Wunderground v.1.15,2013-04-26 14:30:00,
2013-04-26 10:36:00,65.6,36.5,30.43,ENE,64,9.0,12.0,34,0.00,,,0.00,772,Wunderground v.1.15,2013-04-26 14:36:00,
2013-04-26 10:42:00,66.1,36.1,30.43,NE,48,9.0,10.0,33,0.00,,,0.00,790,Wunderground v.1.15,2013-04-26 14:42:00,
2013-04-26 10:48:00,66.4,37.2,30.43,NNE,28,8.0,10.0,34,0.00,,,0.00,804,Wunderground v.1.15,2013-04-26 14:48:00,
2013-04-26 10:54:00,66.9,40.5,30.43,NNE,14,8.0,12.0,38,0.00,,,0.00,822,Wunderground v.1.15,2013-04-26 14:54:00,
2013-04-26 11:01:00,67.1,36.2,30.43,ENE,72,8.0,8.0,32,0.00,,,0.00,829,Wunderground v.1.15,2013-04-26 15:01:00,
2013-04-26 11:06:00,66.6,35.0,30.43,East,90,8.0,12.0,31,0.00,,,0.00,839,Wunderground v.1.15,2013-04-26 15:06:00,
2013-04-26 11:12:00,67.8,38.4,30.43,North,7,8.0,8.0,34,0.00,,,0.00,855,Wunderground v.1.15,2013-04-26 15:12:00,
2013-04-26 11:18:00,67.9,39.9,30.43,NE,34,6.0,8.0,36,0.00,,,0.00,859,Wunderground v.1.15,2013-04-26 15:18:00,
2013-04-26 11:24:00,68.6,38.3,30.43,NE,37,6.0,7.0,33,0.00,,,0.00,904,Wunderground v.1.15,2013-04-26 15:24:00,
2013-04-26 11:30:00,67.6,35.9,30.42,NE,37,8.0,10.0,31,0.00,,,0.00,899,Wunderground v.1.15,2013-04-26 15:30:00,
2013-04-26 11:36:00,68.4,38.2,30.42,NE,38,7.0,8.0,33,0.00,,,0.00,917,Wunderground v.1.15,2013-04-26 15:36:00,
2013-04-26 11:42:00,68.8,35.2,30.42,NNE,20,5.0,5.0,29,0.00,,,0.00,924,Wunderground v.1.15,2013-04-26 15:42:00,
2013-04-26 11:48:00,68.6,35.1,30.42,ENE,62,6.0,7.0,29,0.00,,,0.00,926,Wunderground v.1.15,2013-04-26 15:48:00,
2013-04-26 11:54:00,68.3,33.9,30.42,ENE,78,5.0,6.0,28,0.00,,,0.00,913,Wunderground v.1.15,2013-04-26 15:54:00,
2013-04-26 12:00:00,68.6,38.3,30.42,NNW,335,5.0,5.0,33,0.00,,,0.00,926,Wunderground v.1.15,2013-04-26 16:00:00,
2013-04-26 12:06:00,68.6,38.3,30.42,East,82,6.0,6.0,33,0.00,,,0.00,934,Wunderground v.1.15,2013-04-26 16:06:00,
2013-04-26 12:12:00,68.8,36.9,30.42,SE,126,5.0,10.0,31,0.00,,,0.00,940,Wunderground v.1.15,2013-04-26 16:12:00,
2013-04-26 12:18:00,69.3,35.7,30.41,ENE,64,6.0,10.0,29,0.00,,,0.00,941,Wunderground v.1.15,2013-04-26 16:18:00,
2013-04-26 12:24:00,69.6,35.0,30.41,NNE,32,5.0,12.0,28,0.00,,,0.00,954,Wunderground v.1.15,2013-04-26 16:24:00,
2013-04-26 12:30:00,69.1,34.6,30.40,NNE,27,7.0,12.0,28,0.00,,,0.00,955,Wunderground v.1.15,2013-04-26 16:30:00,
2013-04-26 12:36:00,69.1,41.7,30.40,NNE,20,4.0,6.0,37,0.00,,,0.00,959,Wunderground v.1.15,2013-04-26 16:36:00,
2013-04-26 12:42:00,68.9,37.8,30.40,ESE,123,3.0,3.0,32,0.00,,,0.00,961,Wunderground v.1.15,2013-04-26 16:42:00,
2013-04-26 12:48:00,69.4,35.7,30.39,South,178,3.0,5.0,29,0.00,,,0.00,968,Wunderground v.1.15,2013-04-26 16:48:00,
2013-04-26 12:54:00,69.9,35.3,30.39,NE,48,4.0,5.0,28,0.00,,,0.00,968,Wunderground v.1.15,2013-04-26 16:54:00,
2013-04-26 13:00:00,69.4,34.9,30.39,North,359,5.0,6.0,28,0.00,,,0.00,968,Wunderground v.1.15,2013-04-26 17:00:00,
2013-04-26 13:06:00,69.6,35.0,30.39,North,11,3.0,7.0,28,0.00,,,0.00,971,Wunderground v.1.15,2013-04-26 17:06:00,
2013-04-26 13:12:00,69.9,34.4,30.39,SSE,160,3.0,3.0,27,0.00,,,0.00,970,Wunderground v.1.15,2013-04-26 17:12:00,
2013-04-26 13:18:00,70.4,38.3,30.39,SE,141,3.0,5.0,31,0.00,,,0.00,970,Wunderground v.1.15,2013-04-26 17:18:00,
2013-04-26 13:24:00,70.6,39.3,30.39,SE,141,3.0,5.0,32,0.00,,,0.00,970,Wunderground v.1.15,2013-04-26 17:24:00,
2013-04-26 13:30:00,70.8,35.1,30.39,SSE,167,4.0,7.0,27,0.00,,,0.00,968,Wunderground v.1.15,2013-04-26 17:30:00,
2013-04-26 13:36:00,71.1,35.4,30.39,SE,127,4.0,9.0,27,0.00,,,0.00,966,Wunderground v.1.15,2013-04-26 17:36:00,
2013-04-26 13:42:00,71.5,41.6,30.39,SW,226,3.0,5.0,34,0.00,,,0.00,962,Wunderground v.1.15,2013-04-26 17:42:00,
2013-04-26 13:48:00,71.8,36.9,30.38,SW,223,3.0,7.0,28,0.00,,,0.00,959,Wunderground v.1.15,2013-04-26 17:48:00,
2013-04-26 13:54:00,71.5,36.7,30.38,SW,224,3.0,5.0,28,0.00,,,0.00,945,Wunderground v.1.15,2013-04-26 17:54:00,
2013-04-26 14:00:00,71.5,40.1,30.39,SSW,198,3.0,3.0,32,0.00,,,0.00,941,Wunderground v.1.15,2013-04-26 18:00:00,
2013-04-26 14:06:00,72.1,35.3,30.39,SSE,164,2.0,5.0,26,0.00,,,0.00,941,Wunderground v.1.15,2013-04-26 18:06:00,
2013-04-26 14:12:00,72.3,37.4,30.39,ESE,106,3.0,6.0,28,0.00,,,0.00,922,Wunderground v.1.15,2013-04-26 18:12:00,
2013-04-26 14:18:00,72.3,40.8,30.39,ESE,114,4.0,6.0,32,0.00,,,0.00,899,Wunderground v.1.15,2013-04-26 18:18:00,
2013-04-26 14:24:00,72.1,37.2,30.39,West,270,1.0,3.0,28,0.00,,,0.00,934,Wunderground v.1.15,2013-04-26 18:24:00,
2013-04-26 14:30:00,72.8,37.8,30.38,SW,223,2.0,5.0,28,0.00,,,0.00,915,Wunderground v.1.15,2013-04-26 18:30:00,
2013-04-26 14:36:00,73.3,35.3,30.38,WNW,292,4.0,7.0,25,0.00,,,0.00,911,Wunderground v.1.15,2013-04-26 18:36:00,
2013-04-26 14:42:00,73.2,35.2,30.38,SW,233,4.0,5.0,25,0.00,,,0.00,896,Wunderground v.1.15,2013-04-26 18:42:00,
2013-04-26 14:48:00,73.2,34.2,30.38,WNW,294,3.0,5.0,24,0.00,,,0.00,908,Wunderground v.1.15,2013-04-26 18:48:00,
2013-04-26 14:54:00,72.8,34.9,30.38,North,350,3.0,3.0,25,0.00,,,0.00,883,Wunderground v.1.15,2013-04-26 18:54:00,
2013-04-26 15:00:00,73.0,34.1,30.38,NNW,328,3.0,3.0,24,0.00,,,0.00,867,Wunderground v.1.15,2013-04-26 19:00:00,
2013-04-26 15:06:00,73.7,38.6,30.38,NNE,20,5.0,10.0,28,0.00,,,0.00,815,Wunderground v.1.15,2013-04-26 19:06:00,
2013-04-26 15:12:00,74.0,38.8,30.38,NE,42,6.0,9.0,28,0.00,,,0.00,829,Wunderground v.1.15,2013-04-26 19:12:00,
2013-04-26 15:18:00,73.3,36.3,30.37,North,8,4.0,9.0,26,0.00,,,0.00,816,Wunderground v.1.15,2013-04-26 19:18:00,
2013-04-26 15:24:00,73.3,36.3,30.37,North,1,5.0,10.0,26,0.00,,,0.00,751,Wunderground v.1.15,2013-04-26 19:24:00,
2013-04-26 15:30:00,73.3,36.3,30.36,NNE,31,5.0,7.0,26,0.00,,,0.00,758,Wunderground v.1.15,2013-04-26 19:30:00,
2013-04-26 15:36:00,73.3,34.3,30.36,NE,38,4.0,7.0,24,0.00,,,0.00,767,Wunderground v.1.15,2013-04-26 19:36:00,
2013-04-26 15:42:00,73.3,36.3,30.36,NE,35,5.0,8.0,26,0.00,,,0.00,760,Wunderground v.1.15,2013-04-26 19:42:00,
2013-04-26 15:48:00,73.0,34.1,30.36,NNE,31,3.0,8.0,24,0.00,,,0.00,762,Wunderground v.1.15,2013-04-26 19:48:00,
2013-04-26 15:54:00,72.5,33.6,30.36,West,275,2.0,3.0,24,0.00,,,0.00,630,Wunderground v.1.15,2013-04-26 19:54:00,
2013-04-26 16:00:00,72.3,34.5,30.35,SW,229,3.0,5.0,25,0.00,,,0.00,677,Wunderground v.1.15,2013-04-26 20:00:00,
2013-04-26 16:06:00,73.5,38.4,30.35,NNE,21,3.0,5.0,28,0.00,,,0.00,706,Wunderground v.1.15,2013-04-26 20:06:00,
2013-04-26 16:12:00,73.9,38.7,30.35,NE,49,3.0,5.0,28,0.00,,,0.00,628,Wunderground v.1.15,2013-04-26 20:12:00,
2013-04-26 16:18:00,74.0,35.9,30.34,NNW,346,3.0,5.0,25,0.00,,,0.00,623,Wunderground v.1.15,2013-04-26 20:18:00,
2013-04-26 16:24:00,73.5,36.5,30.34,ENE,62,3.0,3.0,26,0.00,,,0.00,551,Wunderground v.1.15,2013-04-26 20:24:00,
2013-04-26 16:30:00,73.5,36.5,30.33,NW,312,3.0,3.0,26,0.00,,,0.00,567,Wunderground v.1.15,2013-04-26 20:30:00,
2013-04-26 16:36:00,73.3,34.3,30.33,NNE,21,6.0,6.0,24,0.00,,,0.00,530,Wunderground v.1.15,2013-04-26 20:36:00,
2013-04-26 16:42:00,73.2,34.2,30.33,North,354,3.0,4.0,24,0.00,,,0.00,537,Wunderground v.1.15,2013-04-26 20:42:00,
2013-04-26 16:48:00,73.2,33.2,30.33,NW,316,2.0,5.0,23,0.00,,,0.00,537,Wunderground v.1.15,2013-04-26 20:48:00,
2013-04-26 16:54:00,72.8,36.9,30.33,North,10,2.0,3.0,27,0.00,,,0.00,537,Wunderground v.1.15,2013-04-26 20:54:00,
2013-04-26 17:00:00,72.5,36.6,30.34,NW,315,3.0,3.0,27,0.00,,,0.00,465,Wunderground v.1.15,2013-04-26 21:00:00,
2013-04-26 17:06:00,72.0,34.2,30.34,North,359,5.0,7.0,25,0.00,,,0.00,294,Wunderground v.1.15,2013-04-26 21:06:00,
2013-04-26 17:12:00,71.5,35.7,30.34,North,359,5.0,5.0,27,0.00,,,0.00,190,Wunderground v.1.15,2013-04-26 21:12:00,
2013-04-26 17:18:00,71.3,34.6,30.33,NNE,30,4.0,5.0,26,0.00,,,0.00,283,Wunderground v.1.15,2013-04-26 21:18:00,
2013-04-26 17:24:00,71.6,37.6,30.33,NNW,337,4.0,5.0,29,0.00,,,0.00,264,Wunderground v.1.15,2013-04-26 21:24:00,
2013-04-26 17:30:00,71.6,34.9,30.33,NNE,16,4.0,5.0,26,0.00,,,0.00,327,Wunderground v.1.15,2013-04-26 21:30:00,
2013-04-26 17:36:00,71.6,34.9,30.33,North,359,3.0,5.0,26,0.00,,,0.00,259,Wunderground v.1.15,2013-04-26 21:36:00,
2013-04-26 17:42:00,71.6,34.9,30.33,North,356,3.0,3.0,26,0.00,,,0.00,301,Wunderground v.1.15,2013-04-26 21:42:00,
2013-04-26 17:48:00,71.8,36.0,30.33,NNE,24,3.0,5.0,27,0.00,,,0.00,412,Wunderground v.1.15,2013-04-26 21:48:00,
2013-04-26 17:54:00,72.3,34.5,30.33,NE,47,3.0,7.0,25,0.00,,,0.00,385,Wunderground v.1.15,2013-04-26 21:54:00,
2013-04-26 18:00:00,72.5,36.6,30.32,NE,45,5.0,7.0,27,0.00,,,0.00,331,Wunderground v.1.15,2013-04-26 22:00:00,
2013-04-26 18:06:00,72.0,34.2,30.32,NNE,20,5.0,7.0,25,0.00,,,0.00,257,Wunderground v.1.15,2013-04-26 22:06:00,
2013-04-26 18:12:00,71.6,34.9,30.32,North,359,5.0,5.0,26,0.00,,,0.00,185,Wunderground v.1.15,2013-04-26 22:12:00,
2013-04-26 18:18:00,71.5,35.7,30.32,NE,40,4.0,5.0,27,0.00,,,0.00,114,Wunderground v.1.15,2013-04-26 22:18:00,
2013-04-26 18:24:00,70.9,35.2,30.32,NNE,18,3.0,3.0,27,0.00,,,0.00,107,Wunderground v.1.15,2013-04-26 22:24:00,
2013-04-26 18:30:00,70.6,35.9,30.33,North,359,3.0,3.0,28,0.00,,,0.00,111,Wunderground v.1.15,2013-04-26 22:30:00,
2013-04-26 18:36:00,70.4,35.7,30.33,NNE,27,3.0,3.0,28,0.00,,,0.00,104,Wunderground v.1.15,2013-04-26 22:36:00,
2013-04-26 18:42:00,69.9,35.3,30.33,North,10,3.0,5.0,28,0.00,,,0.00,100,Wunderground v.1.15,2013-04-26 22:42:00,
2013-04-26 18:48:00,69.6,35.9,30.32,NW,312,4.0,5.0,29,0.00,,,0.00,86,Wunderground v.1.15,2013-04-26 22:48:00,
2013-04-26 18:54:00,69.4,34.9,30.32,North,359,3.0,4.0,28,0.00,,,0.00,72,Wunderground v.1.15,2013-04-26 22:54:00,
2013-04-26 19:00:00,69.1,34.6,30.33,NW,313,2.0,2.0,28,0.00,,,0.00,60,Wunderground v.1.15,2013-04-26 23:00:00,
2013-04-26 19:06:00,68.8,35.2,30.33,NW,313,2.0,2.0,29,0.00,,,0.00,53,Wunderground v.1.15,2013-04-26 23:06:00,
2013-04-26 19:12:00,68.4,35.7,30.33,North,359,2.0,2.0,30,0.00,,,0.00,49,Wunderground v.1.15,2013-04-26 23:12:00,
2013-04-26 19:18:00,68.3,36.5,30.33,North,359,1.0,2.0,31,0.00,,,0.00,46,Wunderground v.1.15,2013-04-26 23:18:00,
2013-04-26 19:24:00,67.9,37.7,30.33,North,359,1.0,2.0,33,0.00,,,0.00,35,Wunderground v.1.15,2013-04-26 23:24:00,
2013-04-26 19:30:00,67.6,37.5,30.34,North,359,1.0,1.0,33,0.00,,,0.00,32,Wunderground v.1.15,2013-04-26 23:30:00,
2013-04-26 19:36:00,67.3,39.4,30.34,North,359,1.0,1.0,36,0.00,,,0.00,21,Wunderground v.1.15,2013-04-26 23:36:00,
2013-04-26 19:42:00,66.8,38.3,30.34,North,359,1.0,2.0,35,0.00,,,0.00,16,Wunderground v.1.15,2013-04-26 23:42:00,
2013-04-26 19:48:00,66.3,38.5,30.35,North,359,1.0,2.0,36,0.00,,,0.00,7,Wunderground v.1.15,2013-04-26 23:48:00,
2013-04-26 19:54:00,65.8,38.8,30.35,North,359,1.0,2.0,37,0.00,,,0.00,5,Wunderground v.1.15,2013-04-26 23:54:00,
2013-04-26 20:06:00,64.7,39.8,30.35,North,359,0.0,1.0,40,0.00,,,0.00,0,Wunderground v.1.15,2013-04-27 00:06:00,
2013-04-26 20:12:00,64.2,40.0,30.35,North,359,0.0,0.0,41,0.00,,,0.00,0,Wunderground v.1.15,2013-04-27 00:12:00,
2013-04-26 20:18:00,63.9,39.7,30.35,North,359,0.0,0.0,41,0.00,,,0.00,0,Wunderground v.1.15,2013-04-27 00:18:00,
2013-04-26 20:24:00,63.4,41.1,30.35,North,359,0.0,0.0,44,0.00,,,0.00,0,Wunderground v.1.15,2013-04-27 00:24:00,
2013-04-26 20:30:00,63.1,42.5,30.36,North,359,0.0,0.0,47,0.00,,,0.00,0,Wunderground v.1.15,2013-04-27 00:30:00,
2013-04-26 20:36:00,62.7,42.2,30.36,North,359,0.0,0.0,47,0.00,,,0.00,0,Wunderground v.1.15,2013-04-27 00:36:00,
2013-04-26 20:42:00,62.4,41.9,30.36,North,359,0.0,0.0,47,0.00,,,0.00,0,Wunderground v.1.15,2013-04-27 00:42:00,
2013-04-26 20:48:00,62.1,42.2,30.36,North,359,0.0,0.0,48,0.00,,,0.00,0,Wunderground v.1.15,2013-04-27 00:48:00,
2013-04-26 20:54:00,61.8,42.4,30.36,North,359,0.0,0.0,49,0.00,,,0.00,0,Wunderground v.1.15,2013-04-27 00:54:00,
2013-04-26 21:00:00,61.5,43.2,30.37,North,359,0.0,0.0,51,0.00,,,0.00,0,Wunderground v.1.15,2013-04-27 01:00:00,
2013-04-26 21:06:00,61.2,43.9,30.37,North,359,0.0,0.0,53,0.00,,,0.00,0,Wunderground v.1.15,2013-04-27 01:06:00,
2013-04-26 21:12:00,60.7,44.4,30.37,North,359,0.0,0.0,55,0.00,,,0.00,0,Wunderground v.1.15,2013-04-27 01:12:00,
2013-04-26 21:18:00,60.4,43.7,30.37,North,359,0.0,0.0,54,0.00,,,0.00,0,Wunderground v.1.15,2013-04-27 01:18:00,
2013-04-26 21:24:00,59.9,45.1,30.37,North,359,0.0,0.0,58,0.00,,,0.00,0,Wunderground v.1.15,2013-04-27 01:24:00,
2013-04-26 21:30:00,59.5,45.6,30.38,North,359,0.0,0.0,60,0.00,,,0.00,0,Wunderground v.1.15,2013-04-27 01:30:00,
2013-04-26 21:36:00,59.0,46.0,30.38,North,359,0.0,0.0,62,0.00,,,0.00,0,Wunderground v.1.15,2013-04-27 01:36:00,
2013-04-26 21:42:00,58.6,45.6,30.38,North,359,0.0,0.0,62,0.00,,,0.00,0,Wunderground v.1.15,2013-04-27 01:42:00,
2013-04-26 21:48:00,58.3,45.3,30.38,North,359,0.0,0.0,62,0.00,,,0.00,0,Wunderground v.1.15,2013-04-27 01:48:00,
2013-04-26 21:54:00,58.0,45.9,30.38,North,359,0.0,0.0,64,0.00,,,0.00,0,Wunderground v.1.15,2013-04-27 01:54:00,
2013-04-26 22:00:00,57.6,45.9,30.39,North,359,0.0,0.0,65,0.00,,,0.00,0,Wunderground v.1.15,2013-04-27 02:00:00,
2013-04-26 22:06:00,57.3,46.0,30.39,North,359,0.0,0.0,66,0.00,,,0.00,0,Wunderground v.1.15,2013-04-27 02:06:00,
2013-04-26 22:12:00,57.2,46.7,30.39,North,359,0.0,0.0,68,0.00,,,0.00,0,Wunderground v.1.15,2013-04-27 02:12:00,
2013-04-26 22:18:00,56.6,46.2,30.39,North,359,0.0,0.0,68,0.00,,,0.00,0,Wunderground v.1.15,2013-04-27 02:18:00,
2013-04-26 22:24:00,56.3,46.3,30.39,North,359,0.0,0.0,69,0.00,,,0.00,0,Wunderground v.1.15,2013-04-27 02:24:00,
2013-04-26 22:30:00,55.9,46.6,30.39,North,359,0.0,0.0,71,0.00,,,0.00,0,Wunderground v.1.15,2013-04-27 02:30:00,
2013-04-26 22:36:00,55.7,46.8,30.39,North,359,0.0,0.0,72,0.00,,,0.00,0,Wunderground v.1.15,2013-04-27 02:36:00,
2013-04-26 22:42:00,55.4,46.2,30.39,North,359,0.0,0.0,71,0.00,,,0.00,0,Wunderground v.1.15,2013-04-27 02:42:00,
2013-04-26 22:48:00,55.1,46.2,30.39,North,359,0.0,0.0,72,0.00,,,0.00,0,Wunderground v.1.15,2013-04-27 02:48:00,
2013-04-26 22:54:00,54.8,46.3,30.39,North,359,0.0,0.0,73,0.00,,,0.00,0,Wunderground v.1.15,2013-04-27 02:54:00,
2013-04-26 23:00:00,54.5,46.0,30.38,North,359,0.0,0.0,73,0.00,,,0.00,0,Wunderground v.1.15,2013-04-27 03:00:00,
2013-04-26 23:06:00,54.2,46.1,30.38,North,359,0.0,0.0,74,0.00,,,0.00,0,Wunderground v.1.15,2013-04-27 03:06:00,
2013-04-26 23:12:00,54.1,46.0,30.38,North,359,0.0,0.0,74,0.00,,,0.00,0,Wunderground v.1.15,2013-04-27 03:12:00,
2013-04-26 23:18:00,53.8,46.1,30.38,North,359,0.0,0.0,75,0.00,,,0.00,0,Wunderground v.1.15,2013-04-27 03:18:00,
2013-04-26 23:24:00,53.5,46.1,30.38,North,359,0.0,0.0,76,0.00,,,0.00,0,Wunderground v.1.15,2013-04-27 03:24:00,
2013-04-26 23:30:00,53.2,45.8,30.37,North,359,0.0,0.0,76,0.00,,,0.00,0,Wunderground v.1.15,2013-04-27 03:30:00,
2013-04-26 23:36:00,53.1,46.1,30.37,North,359,0.0,0.0,77,0.00,,,0.00,0,Wunderground v.1.15,2013-04-27 03:36:00,
2013-04-26 23:42:00,52.8,45.8,30.37,North,359,0.0,0.0,77,0.00,,,0.00,0,Wunderground v.1.15,2013-04-27 03:42:00,
2013-04-26 23:48:00,52.5,45.8,30.37,North,359,0.0,0.0,78,0.00,,,0.00,0,Wunderground v.1.15,2013-04-27 03:48:00,
2013-04-26 23:54:00,52.3,46.0,30.37,ESE,103,0.0,1.0,79,0.00,,,0.00,0,Wunderground v.1.15,2013-04-27 03:54:00,